User: anonymous   Login
Location: Mentone
(34.5413°N, 85.5351°W)
Time: 22:42:51
(UTC-05:00)
Language:

ADEOS Rocket - Orbit

View from above orbital plane
View from above orbital plane
View from above satellite
View from above satellite

Ground track
Ground track

The orbit data is extracted from the following two-line orbital elements,

1 24279U 96046C   17290.50039209 -.00000026 +00000-0 +15123-4 0  9991
2 24279 098.7609 219.3797 0299951 337.2626 148.3710 13.47096677040432
Epoch (UTC): 17 October 2017 12:00:33
Eccentricity: 0.0299951
inclination: 98.7609°
perigee height: 859 km
apogee height: 1307 km
right ascension of ascending node: 219.3797°
argument of perigee: 337.2626°
revolutions per day: 13.47096677
mean anomaly at epoch: 148.3710°
orbit number at epoch: 4043

The dashed part of the orbit path shows where the satellite is in the earth's shadow,  

DLR